FFT1366 KSNA-KSLC

Flight info

Callsign FFT1366
Flight time N/A
Altitude 39000
Route FINZZ3 BEALE Q842 WINEN MLF QWENN6
Aircraft A320/M-SDE3FGHIRWY/LB1

Departure

Time 2026-05-03 22:45
Airport John Wayne Orange County International Airport (KSNA)

Arrival

Time N/A
Airport Salt Lake City International Airport (KSLC)
Time Latitude Longitude Altitude Speed Heading
2026-05-03 22:22 33.67719 -117.86373 50 ft 0 kts 118°
2026-05-03 22:33 33.67725 -117.86387 52 ft 4 kts 118°
2026-05-03 22:33 33.67736 -117.86415 48 ft 4 kts 95°
2026-05-03 22:33 33.67731 -117.86443 52 ft 4 kts 44°
2026-05-03 22:33 33.67724 -117.86451 53 ft 0 kts 28°
2026-05-03 22:36 33.67724 -117.86450 55 ft 0 kts 32°
2026-05-03 22:36 33.67741 -117.86440 50 ft 0 kts 25°
2026-05-03 22:42 33.67751 -117.86434 52 ft 8 kts 25°
2026-05-03 22:42 33.67806 -117.86398 55 ft 9 kts 29°
2026-05-03 22:43 33.67856 -117.86366 51 ft 8 kts 25°
2026-05-03 22:43 33.67901 -117.86340 52 ft 7 kts 25°
2026-05-03 22:43 33.67942 -117.86314 55 ft 7 kts 30°
2026-05-03 22:43 33.67978 -117.86321 55 ft 5 kts 310°
2026-05-03 22:44 33.68007 -117.86387 55 ft 12 kts 297°
2026-05-03 22:44 33.68045 -117.86473 55 ft 11 kts 297°
2026-05-03 22:44 33.68073 -117.86550 55 ft 9 kts 276°
2026-05-03 22:44 33.68055 -117.86580 51 ft 0 kts 206°
2026-05-03 22:45 33.67951 -117.86644 52 ft 57 kts 208°
2026-05-03 22:45 33.67325 -117.87037 56 ft 141 kts 207°
2026-05-03 22:45 33.66378 -117.87629 689 ft 159 kts 208°
2026-05-03 22:45 33.65367 -117.88214 1729 ft 159 kts 202°
2026-05-03 22:46 33.64326 -117.88562 2799 ft 155 kts 194°
2026-05-03 22:46 33.63326 -117.88789 3680 ft 143 kts 189°
2026-05-03 22:46 33.62265 -117.89005 4046 ft 164 kts 188°
2026-05-03 22:46 33.61073 -117.89226 4400 ft 187 kts 187°
2026-05-03 22:47 33.59705 -117.89460 4710 ft 209 kts 187°
2026-05-03 22:47 33.58167 -117.89713 5040 ft 235 kts 189°
2026-05-03 22:47 33.56598 -117.90525 5574 ft 257 kts 218°
2026-05-03 22:47 33.55301 -117.92008 6485 ft 262 kts 222°
2026-05-03 22:48 33.53988 -117.93524 7448 ft 263 kts 222°
2026-05-03 22:48 33.52652 -117.95040 8389 ft 265 kts 222°
2026-05-03 22:48 33.51302 -117.96559 9324 ft 268 kts 222°
2026-05-03 22:48 33.50079 -117.98256 10195 ft 274 kts 238°
2026-05-03 22:49 33.49468 -118.00531 10544 ft 304 kts 263°
2026-05-03 22:49 33.49760 -118.03150 10917 ft 331 kts 285°
2026-05-03 22:49 33.50937 -118.05577 11589 ft 348 kts 309°
2026-05-03 22:49 33.52912 -118.07251 12343 ft 362 kts 335°
2026-05-03 22:50 33.55437 -118.07765 13119 ft 375 kts
2026-05-03 22:50 33.58021 -118.07170 13879 ft 381 kts 13°
2026-05-03 22:50 33.60586 -118.06257 14521 ft 387 kts 15°
2026-05-03 22:50 33.63128 -118.05216 15134 ft 393 kts 17°
2026-05-03 22:51 33.65736 -118.04103 15764 ft 398 kts 16°
2026-05-03 22:51 33.68366 -118.02996 16387 ft 403 kts 15°
2026-05-03 22:51 33.71040 -118.01912 16998 ft 408 kts 14°
2026-05-03 22:51 33.73763 -118.00852 17603 ft 413 kts 13°
2026-05-03 22:52 33.76525 -117.99809 18181 ft 418 kts 12°
2026-05-03 22:52 33.79321 -117.98767 18719 ft 423 kts 11°
2026-05-03 22:52 33.82153 -117.97710 19270 ft 427 kts 11°
2026-05-03 22:52 33.84972 -117.96648 19802 ft 431 kts 11°
2026-05-03 22:53 33.87849 -117.95554 20353 ft 435 kts 12°
2026-05-03 22:53 33.90681 -117.94128 20855 ft 447 kts 22°
2026-05-03 22:53 33.93321 -117.92058 21334 ft 458 kts 33°
2026-05-03 22:53 33.95865 -117.89708 21831 ft 463 kts 32°
2026-05-03 22:54 33.98447 -117.87335 22294 ft 468 kts 32°
2026-05-03 22:54 34.01032 -117.84971 22748 ft 472 kts 32°
2026-05-03 22:54 34.03662 -117.82569 23200 ft 477 kts 31°
2026-05-03 22:54 34.06331 -117.80128 23640 ft 481 kts 31°
2026-05-03 22:55 34.08919 -117.77499 24017 ft 490 kts 39°
2026-05-03 22:55 34.11216 -117.74410 24421 ft 498 kts 47°
2026-05-03 22:55 34.13387 -117.71179 24810 ft 501 kts 47°
2026-05-03 22:55 34.15593 -117.67897 25205 ft 504 kts 47°
2026-05-03 22:56 34.17819 -117.64587 25604 ft 507 kts 47°
2026-05-03 22:56 34.20032 -117.61301 25956 ft 510 kts 47°
2026-05-03 22:56 34.22283 -117.57960 26346 ft 513 kts 47°
2026-05-03 22:56 34.24545 -117.54600 26746 ft 514 kts 47°
2026-05-03 22:57 34.26816 -117.51215 27058 ft 518 kts 47°
2026-05-03 22:57 34.29069 -117.47846 27373 ft 521 kts 47°
2026-05-03 22:57 34.31356 -117.44421 27743 ft 523 kts 47°
2026-05-03 22:57 34.33646 -117.40995 28130 ft 525 kts 47°
2026-05-03 22:58 34.35955 -117.37539 28483 ft 528 kts 47°
2026-05-03 22:58 34.38248 -117.34103 28820 ft 531 kts 46°
2026-05-03 22:58 34.40577 -117.30615 29128 ft 533 kts 46°
2026-05-03 22:58 34.42923 -117.27101 29451 ft 536 kts 46°
2026-05-03 22:59 34.45275 -117.23574 29766 ft 538 kts 46°
2026-05-03 22:59 34.47636 -117.20035 30083 ft 540 kts 46°
2026-05-03 22:59 34.49976 -117.16518 30293 ft 543 kts 46°
2026-05-03 22:59 34.52347 -117.12952 30587 ft 544 kts 46°
2026-05-03 23:00 34.54731 -117.09360 30852 ft 546 kts 46°
2026-05-03 23:00 34.57132 -117.05784 31157 ft 547 kts 46°
2026-05-03 23:00 34.59564 -117.02226 31520 ft 545 kts 45°
2026-05-03 23:00 34.62006 -116.98699 31845 ft 544 kts 45°
2026-05-03 23:01 34.64449 -116.95181 32212 ft 544 kts 45°
2026-05-03 23:01 34.66848 -116.91713 32586 ft 543 kts 45°
2026-05-03 23:01 34.69279 -116.88179 32922 ft 543 kts 45°
2026-05-03 23:01 34.71695 -116.84646 33325 ft 541 kts 45°
2026-05-03 23:02 34.74093 -116.81125 33763 ft 539 kts 45°
2026-05-03 23:02 34.76482 -116.77612 34128 ft 538 kts 45°
2026-05-03 23:02 34.78865 -116.74106 34466 ft 537 kts 45°
2026-05-03 23:02 34.81251 -116.70594 34766 ft 537 kts 45°
2026-05-03 23:03 34.83609 -116.67123 35092 ft 535 kts 45°
2026-05-03 23:03 34.85991 -116.63630 35390 ft 534 kts 45°
2026-05-03 23:03 34.88424 -116.60207 35665 ft 532 kts 43°
2026-05-03 23:03 34.90906 -116.56874 35980 ft 530 kts 41°
2026-05-03 23:04 34.93391 -116.53630 36288 ft 528 kts 41°
2026-05-03 23:04 34.95908 -116.50375 36554 ft 527 kts 41°
2026-05-03 23:04 34.98421 -116.47104 36807 ft 527 kts 41°
2026-05-03 23:04 35.00914 -116.43818 37058 ft 527 kts 42°
2026-05-03 23:05 35.03390 -116.40515 37300 ft 527 kts 42°
2026-05-03 23:05 35.05824 -116.37232 37520 ft 527 kts 43°
2026-05-03 23:05 35.08277 -116.33902 37779 ft 526 kts 43°
2026-05-03 23:05 35.10734 -116.30567 38014 ft 526 kts 43°
2026-05-03 23:06 35.13163 -116.27277 38222 ft 525 kts 42°
2026-05-03 23:06 35.15615 -116.23968 38460 ft 525 kts 42°
2026-05-03 23:06 35.18067 -116.20666 38654 ft 524 kts 42°
2026-05-03 23:07 35.22983 -116.14034 38763 ft 524 kts 42°
2026-05-03 23:07 35.27062 -116.08513 38751 ft 526 kts 42°
2026-05-03 23:08 35.31967 -116.01861 38753 ft 527 kts 42°
2026-05-03 23:08 35.36885 -115.95183 38772 ft 527 kts 43°
2026-05-03 23:09 35.41774 -115.88523 38794 ft 528 kts 42°
2026-05-03 23:09 35.46696 -115.81809 38798 ft 529 kts 42°
2026-05-03 23:10 35.51629 -115.75072 38823 ft 529 kts 43°
2026-05-03 23:10 35.56513 -115.68369 38826 ft 529 kts 43°
2026-05-03 23:11 35.61436 -115.61610 38830 ft 529 kts 43°
2026-05-03 23:11 35.66342 -115.54863 38834 ft 529 kts 43°
2026-05-03 23:12 35.71247 -115.48104 38852 ft 529 kts 43°
2026-05-03 23:12 35.76133 -115.41364 38850 ft 528 kts 43°
2026-05-03 23:13 35.81035 -115.34577 38846 ft 528 kts 43°
2026-05-03 23:13 35.85898 -115.27843 38845 ft 528 kts 43°
2026-05-03 23:14 35.90789 -115.21056 38969 ft 520 kts 45°
2026-05-03 23:14 35.93103 -115.17822 39232 ft 502 kts 45°
2026-05-03 23:14 35.95422 -115.14576 38191 ft 508 kts 45°
2026-05-03 23:14 35.97808 -115.11246 37096 ft 516 kts 45°
2026-05-03 23:15 36.00175 -115.07937 36487 ft 511 kts 45°
2026-05-03 23:15 36.02506 -115.04676 35781 ft 509 kts 45°
2026-05-03 23:15 36.04858 -115.01384 34984 ft 508 kts 45°
2026-05-03 23:15 36.07201 -114.98102 34221 ft 508 kts 45°
2026-05-03 23:16 36.09546 -114.94816 33245 ft 509 kts 45°
2026-05-03 23:16 36.11899 -114.91523 31392 ft 528 kts 45°
2026-05-03 23:16 36.14334 -114.88123 30734 ft 522 kts 45°
2026-05-03 23:16 36.16747 -114.84747 29847 ft 520 kts 45°
2026-05-03 23:17 36.19124 -114.81420 28824 ft 518 kts 46°
2026-05-03 23:17 36.21547 -114.78028 26960 ft 531 kts 46°
2026-05-03 23:17 36.23963 -114.74649 26323 ft 520 kts 46°
2026-05-03 23:17 36.26352 -114.71302 25345 ft 515 kts 46°
2026-05-03 23:18 36.28734 -114.67964 23728 ft 522 kts 47°
2026-05-03 23:18 36.31146 -114.64584 22983 ft 512 kts 47°
2026-05-03 23:18 36.33451 -114.61351 22043 ft 504 kts 47°
2026-05-03 23:18 36.35761 -114.58106 21222 ft 495 kts 47°
2026-05-03 23:19 36.38039 -114.54905 20383 ft 488 kts 48°
2026-05-03 23:19 36.40249 -114.51797 19510 ft 483 kts 48°
2026-05-03 23:19 36.42454 -114.48694 18922 ft 475 kts 48°
2026-05-03 23:19 36.44623 -114.45639 18248 ft 469 kts 49°
2026-05-03 23:20 36.46774 -114.42610 17451 ft 463 kts 49°
2026-05-03 23:20 36.48901 -114.39613 16662 ft 458 kts 49°
2026-05-03 23:20 36.51001 -114.36653 15919 ft 452 kts 50°
2026-05-03 23:20 36.53072 -114.33736 15119 ft 447 kts 49°
2026-05-03 23:21 36.55095 -114.30886 14317 ft 443 kts 50°
2026-05-03 23:21 36.57133 -114.28016 13631 ft 437 kts 50°
2026-05-03 23:21 36.59137 -114.25193 12821 ft 432 kts 50°
2026-05-03 23:21 36.61128 -114.22390 11913 ft 429 kts 50°
2026-05-03 23:22 36.65032 -114.16892 10227 ft 421 kts 50°
2026-05-03 23:22 36.66968 -114.14164 9452 ft 416 kts 50°
2026-05-03 23:22 36.68881 -114.11469 8632 ft 413 kts 50°
2026-05-03 23:23 36.70768 -114.08812 7793 ft 407 kts 50°
2026-05-03 23:23 36.72631 -114.06187 7049 ft 401 kts 50°
2026-05-03 23:23 36.74468 -114.03601 6380 ft 393 kts 50°
2026-05-03 23:23 36.76251 -114.01091 5622 ft 387 kts 50°
2026-05-03 23:24 36.78042 -113.98565 4721 ft 386 kts 49°
2026-05-03 23:24 36.79825 -113.96048 3226 ft 395 kts 49°
2026-05-03 23:24 36.81664 -113.93448 2421 ft 388 kts 50°
2026-05-03 23:24 36.83356 -113.91203 3127 ft 335 kts 44°
2026-05-03 23:25 36.85200 -113.89275 3489 ft 363 kts 36°
2026-05-03 23:25 36.86828 -113.87763 3436 ft 93 kts 16°
2026-05-03 23:25 36.86930 -113.87532 2985 ft 22 kts 122°
2026-05-03 23:25 36.86929 -113.87648 2905 ft 14 kts 260°
2026-05-03 23:26 36.86942 -113.87682 2893 ft 2 kts 268°
2026-05-03 23:26 36.86943 -113.87685 2892 ft 1 kts 266°
2026-05-03 23:26 36.86942 -113.87685 2892 ft 1 kts 266°